Simultaneous Nadir Overpasses (SNOs) Predictions

Prediction of SNOs between NPP and TERRA Satellite Orbit:

Table of predicted SNOs for the next 14.0 days since TLE Epoch: 8/20/2016
Index Date (NPP) Time (NPP) Lat,Lon (NPP) SZA (NPP ) Date (TERRA) Time (TERRA) Lat,Lon (TERRA) SZA (TERRA ) Distance(km) Time Diff (sec)
1 08/22/2016 10:39:49 68.48, 18.72 56.83 08/22/2016 10:40:55 68.46, 18.71 56.80 2.47 66
2 08/22/2016 11:30:30 -68.33,-173.77 123.31 08/22/2016 11:30:25 -68.35,-173.78 123.29 2.27 5
3 08/22/2016 12:21:08 67.89, -5.91 56.26 08/22/2016 12:19:57 67.96, -6.61 56.33 30.14 71
4 08/25/2016 02:56:41 68.45, 134.54 57.71 08/25/2016 02:57:21 68.45, 134.58 57.71 1.84 40
5 08/25/2016 03:47:22 -68.30, -57.95 122.43 08/25/2016 03:46:52 -68.29, -57.97 122.44 1.43 30
6 08/27/2016 18:23:03 -69.22, 81.96 120.58 08/27/2016 18:24:11 -69.10, 83.65 120.72 68.13 68
7 08/27/2016 19:13:33 68.36,-109.58 58.56 08/27/2016 19:13:49 68.37,-109.62 58.57 2.07 16
8 08/27/2016 20:04:15 -68.27, 57.86 121.53 08/27/2016 20:03:19 -68.27, 57.89 121.53 1.28 56
9 08/30/2016 10:39:42 -68.44,-161.21 120.42 08/30/2016 10:40:49 -68.46,-161.26 120.41 3.00 67
10 08/30/2016 11:30:26 68.33, 6.24 59.48 08/30/2016 11:30:16 68.34, 6.24 59.49 1.15 10
11 08/30/2016 12:21:03 -67.97, 174.02 120.88 08/30/2016 12:19:50 -68.02, 173.49 120.82 22.88 73
12 09/02/2016 02:56:35 -68.42, -45.40 119.48 09/02/2016 02:57:16 -68.43, -45.42 119.48 1.46 41
13 09/02/2016 03:47:19 68.30, 122.05
